| time (UTC) | temp F | wind direction | speed MPH | gust MPH | rain 1hr in | rain 24hr in | rain mn in | humidity % | barometer mb |
| 20260904131004 | 70 | 247 | 0.0 | 1.0 | 0.00 | 0.06 | 0.01 | 96 | 1020.1 |
| 20260904130005 | 68 | 247 | 0.0 | 3.0 | 0.00 | 0.06 | 0.01 | 98 | 1020.2 |
| 20260904125006 | 68 | 247 | 0.0 | 0.0 | 0.01 | 0.06 | 0.01 | 100 | 1020.1 |
| 20260904124005 | 67 | 247 | 0.0 | 0.0 | 0.01 | 0.06 | 0.01 | 100 | 1020.3 |
| 20260904123005 | 65 | 247 | 0.0 | 0.0 | 0.01 | 0.06 | 0.01 | 100 | 1020.3 |
| 20260904122006 | 64 | 247 | 1.0 | 2.0 | 0.01 | 0.07 | 0.01 | 100 | 1020.2 |
| 20260904121006 | 64 | 226 | 0.0 | 2.0 | 0.01 | 0.07 | 0.01 | 99 | 1020.2 |
| 20260904115005 | 63 | 141 | 0.0 | 0.0 | 0.00 | 0.06 | 0.00 | 100 | 1020.0 |
| 20260904114005 | 62 | 141 | 0.0 | 0.0 | 0.00 | 0.06 | 0.00 | 100 | 1019.9 |
| 20260904112005 | 61 | 141 | 0.0 | 0.0 | 0.00 | 0.06 | 0.00 | 98 | 1019.9 |
| 20260904110006 | 61 | 141 | 0.0 | 0.0 | 0.00 | 0.06 | 0.00 | 98 | 1019.8 |
| 20260904105005 | 61 | 141 | 0.0 | 0.0 | 0.00 | 0.06 | 0.00 | 98 | 1019.7 |
| 20260904104005 | 62 | 141 | 0.0 | 0.0 | 0.00 | 0.06 | 0.00 | 98 | 1019.7 |
| 20260904103005 | 62 | 141 | 0.0 | 0.0 | 0.00 | 0.06 | 0.00 | 98 | 1019.6 |
| 20260904102006 | 62 | 141 | 0.0 | 0.0 | 0.00 | 0.06 | 0.00 | 98 | 1019.5 |
| 20260904101005 | 62 | 141 | 0.0 | 0.0 | 0.00 | 0.06 | 0.00 | 98 | 1019.7 |
| 20260904100007 | 62 | 141 | 0.0 | 0.0 | 0.00 | 0.06 | 0.00 | 97 | 1019.5 |
| 20260904095006 | 62 | 141 | 0.0 | 0.0 | 0.00 | 0.06 | 0.00 | 97 | 1019.4 |
| 20260904094006 | 63 | 141 | 0.0 | 0.0 | 0.00 | 0.06 | 0.00 | 97 | 1019.4 |
| 20260904093005 | 63 | 141 | 0.0 | 0.0 | 0.00 | 0.06 | 0.00 | 97 | 1019.4 |
| 20260904092006 | 63 | 141 | 0.0 | 0.0 | 0.00 | 0.06 | 0.00 | 97 | 1019.5 |
| 20260904091006 | 64 | 141 | 0.0 | 0.0 | 0.00 | 0.06 | 0.00 | 97 | 1019.3 |
| 20260904090007 | 64 | 141 | 0.0 | 0.0 | 0.00 | 0.06 | 0.00 | 96 | 1019.5 |
| 20260904083006 | 65 | 141 | 0.0 | 0.0 | 0.00 | 0.07 | 0.00 | 96 | 1019.2 |
| 20260904082005 | 66 | 141 | 0.0 | 0.0 | 0.00 | 0.07 | 0.00 | 97 | 1019.2 |
| 20260904081005 | 66 | 141 | 0.0 | 0.0 | 0.00 | 0.07 | 0.00 | 97 | 1019.1 |
| 20260904074006 | 66 | 141 | 0.0 | 0.0 | 0.00 | 0.07 | 0.00 | 98 | 1018.8 |
| 20260904073006 | 66 | 141 | 0.0 | 0.0 | 0.00 | 0.07 | 0.00 | 98 | 1018.8 |
| 20260904072005 | 66 | 141 | 0.0 | 0.0 | 0.00 | 0.07 | 0.00 | 98 | 1018.8 |
| 20260904071006 | 66 | 141 | 0.0 | 0.0 | 0.00 | 0.07 | 0.00 | 98 | 1018.7 |
| 20260904070005 | 67 | 141 | 0.0 | 0.0 | 0.00 | 0.07 | 0.00 | 98 | 1018.6 |
| 20260904065005 | 67 | 141 | 0.0 | 0.0 | 0.00 | 0.07 | 0.00 | 99 | 1018.7 |
| 20260904064006 | 67 | 141 | 0.0 | 0.0 | 0.00 | 0.07 | 0.00 | 98 | 1018.7 |
| 20260904062005 | 66 | 141 | 0.0 | 0.0 | 0.00 | 0.07 | 0.00 | 98 | 1018.7 |
| 20260904061006 | 67 | 141 | 0.0 | 0.0 | 0.00 | 0.07 | 0.00 | 98 | 1018.7 |
| 20260904060006 | 67 | 141 | 0.0 | 0.0 | 0.00 | 0.07 | 0.00 | 99 | 1018.8 |
| 20260904055006 | 67 | 141 | 0.0 | 0.0 | 0.00 | 0.07 | 0.00 | 99 | 1018.9 |
| 20260904054006 | 67 | 141 | 0.0 | 0.0 | 0.00 | 0.07 | 0.00 | 99 | 1019.0 |
| 20260904053006 | 67 | 141 | 0.0 | 0.0 | 0.00 | 0.07 | 0.00 | 99 | 1019.2 |
| 20260904052006 | 67 | 141 | 0.0 | 1.0 | 0.00 | 0.07 | 0.00 | 99 | 1019.3 |
| 20260904051006 | 67 | 305 | 0.0 | 1.0 | 0.00 | 0.08 | 0.00 | 98 | 1019.3 |
| 20260904050005 | 67 | 322 | 0.0 | 0.0 | 0.00 | 0.08 | 0.00 | 98 | 1019.3 |
| 20260904044007 | 67 | 306 | 0.0 | 0.0 | 0.01 | 0.08 | 0.00 | 99 | 1019.3 |
| 20260904041005 | 66 | 283 | 0.0 | 0.0 | 0.01 | 0.08 | 0.00 | 98 | 1019.1 |
| 20260904040006 | 67 | 283 | 0.0 | 0.0 | 0.01 | 0.08 | 0.00 | 98 | 1019.0 |
| 20260904035006 | 67 | 283 | 0.0 | 0.0 | 0.01 | 0.08 | 0.08 | 98 | 1018.9 |
| 20260904034006 | 67 | 283 | 0.0 | 0.0 | 0.00 | 0.07 | 0.07 | 98 | 1018.8 |
| 20260904032006 | 67 | 283 | 0.0 | 0.0 | 0.00 | 0.07 | 0.07 | 97 | 1018.7 |
| 20260904030006 | 67 | 283 | 0.0 | 0.0 | 0.00 | 0.07 | 0.07 | 97 | 1018.5 |
| 20260904023006 | 68 | 283 | 0.0 | 0.0 | 0.00 | 0.07 | 0.07 | 96 | 1018.6 |
| 20260904022006 | 68 | 283 | 0.0 | 0.0 | 0.00 | 0.07 | 0.07 | 95 | 1018.8 |
| 20260904021007 | 68 | 283 | 0.0 | 0.0 | 0.00 | 0.08 | 0.07 | 94 | 1018.8 |
| 20260904020007 | 69 | 333 | 0.0 | 0.0 | 0.00 | 0.08 | 0.07 | 94 | 1018.6 |
| 20260904015003 | 69 | 283 | 0.0 | 0.0 | 0.00 | 0.08 | 0.07 | 93 | 1018.4 |
| 20260904014003 | 69 | 275 | 0.0 | 0.0 | 0.00 | 0.08 | 0.07 | 93 | 1018.4 |
| 20260904013003 | 70 | 275 | 0.0 | 0.0 | 0.00 | 0.08 | 0.07 | 92 | 1018.3 |
| 20260904012003 | 70 | 214 | 0.0 | 0.0 | 0.00 | 0.08 | 0.07 | 91 | 1018.1 |
| 20260904011002 | 71 | 214 | 0.0 | 0.0 | 0.00 | 0.08 | 0.07 | 90 | 1018.1 |
| 20260904004002 | 72 | 214 | 0.0 | 1.0 | 0.00 | 0.08 | 0.07 | 89 | 1017.8 |
| 20260904003003 | 72 | 214 | 1.0 | 2.0 | 0.00 | 0.08 | 0.07 | 88 | 1017.7 |
| 20260904002002 | 73 | 214 | 0.0 | 2.0 | 0.00 | 0.08 | 0.07 | 87 | 1017.8 |
| 20260904001002 | 73 | 265 | 0.0 | 7.0 | 0.00 | 0.08 | 0.07 | 87 | 1017.5 |
| 20260904000003 | 73 | 343 | 1.0 | 5.0 | 0.00 | 0.08 | 0.07 | 88 | 1017.4 |
| 20260903234003 | 75 | 9 | 2.0 | 5.0 | 0.00 | 0.08 | 0.07 | 91 | 1017.4 |
| 20260903233002 | 75 | 344 | 2.0 | 8.0 | 0.00 | 0.09 | 0.07 | 91 | 1017.3 |
| 20260903232003 | 76 | 347 | 2.0 | 7.0 | 0.01 | 0.09 | 0.07 | 91 | 1017.4 |
| 20260903230002 | 78 | 321 | 0.0 | 0.0 | 0.01 | 0.09 | 0.07 | 93 | 1017.1 |
| 20260903225002 | 78 | 321 | 0.0 | 0.0 | 0.01 | 0.09 | 0.07 | 92 | 1016.9 |
| 20260903224002 | 79 | 321 | 0.0 | 0.0 | 0.01 | 0.09 | 0.07 | 92 | 1016.9 |
| 20260903223002 | 79 | 321 | 0.0 | 0.0 | 0.01 | 0.09 | 0.07 | 91 | 1017.2 |
| 20260903222003 | 79 | 321 | 0.0 | 0.0 | 0.00 | 0.08 | 0.06 | 90 | 1017.0 |
| 20260903215004 | 81 | 321 | 0.0 | 0.0 | 0.00 | 0.09 | 0.06 | 87 | 1016.4 |
| 20260903214002 | 81 | 321 | 0.0 | 0.0 | 0.00 | 0.09 | 0.06 | 86 | 1016.6 |
| 20260903213003 | 81 | 321 | 0.0 | 2.0 | 0.00 | 0.09 | 0.06 | 86 | 1016.6 |
| 20260903212003 | 81 | 286 | 1.0 | 3.0 | 0.00 | 0.09 | 0.06 | 83 | 1016.4 |
| 20260903211002 | 82 | 256 | 0.0 | 2.0 | 0.00 | 0.10 | 0.06 | 84 | 1016.8 |
| 20260903210002 | 82 | 188 | 0.0 | 2.0 | 0.00 | 0.10 | 0.06 | 83 | 1016.9 |
| 20260903204003 | 82 | 39 | 1.0 | 3.0 | 0.01 | 0.10 | 0.06 | 83 | 1017.2 |
| 20260903203002 | 82 | 275 | 1.0 | 3.0 | 0.01 | 0.10 | 0.06 | 82 | 1017.3 |
| 20260903202003 | 83 | 224 | 1.0 | 3.0 | 0.01 | 0.11 | 0.06 | 81 | 1017.3 |
| 20260903201003 | 83 | 328 | 1.0 | 3.0 | 0.01 | 0.11 | 0.06 | 82 | 1017.3 |
| 20260903200004 | 83 | 250 | 1.0 | 3.0 | 0.01 | 0.11 | 0.06 | 84 | 1017.5 |
| 20260903195003 | 83 | 24 | 0.0 | 3.0 | 0.01 | 0.11 | 0.06 | 84 | 1017.5 |
| 20260903194003 | 83 | 23 | 0.0 | 3.0 | 0.00 | 0.10 | 0.05 | 85 | 1017.4 |
| 20260903193003 | 83 | 277 | 1.0 | 5.0 | 0.00 | 0.11 | 0.05 | 84 | 1017.6 |
| 20260903192003 | 83 | 228 | 1.0 | 3.0 | 0.00 | 0.11 | 0.05 | 84 | 1017.5 |
| 20260903190003 | 83 | 342 | 1.0 | 2.0 | 0.00 | 0.12 | 0.05 | 85 | 1017.7 |
| 20260903185002 | 84 | 328 | 1.0 | 3.0 | 0.01 | 0.12 | 0.05 | 84 | 1017.5 |
| 20260903184004 | 83 | 130 | 2.0 | 3.0 | 0.01 | 0.12 | 0.05 | 86 | 1017.4 |
| 20260903182002 | 82 | 292 | 0.0 | 1.0 | 0.01 | 0.12 | 0.05 | 85 | 1017.8 |
| 20260903181003 | 83 | 205 | 0.0 | 3.0 | 0.01 | 0.13 | 0.05 | 83 | 1017.7 |
| 20260903180004 | 84 | 123 | 0.0 | 3.0 | 0.01 | 0.13 | 0.05 | 81 | 1018.0 |
| 20260903175003 | 84 | 178 | 1.0 | 6.0 | 0.00 | 0.12 | 0.04 | 80 | 1017.9 |
| 20260903174003 | 84 | 201 | 2.0 | 7.0 | 0.00 | 0.13 | 0.04 | 82 | 1017.9 |
| 20260903173003 | 83 | 175 | 1.0 | 7.0 | 0.00 | 0.13 | 0.04 | 82 | 1017.9 |
| 20260903171004 | 82 | 40 | 1.0 | 8.0 | 0.00 | 0.14 | 0.04 | 83 | 1018.1 |
| 20260903170003 | 83 | 308 | 1.0 | 3.0 | 0.00 | 0.14 | 0.04 | 85 | 1018.0 |
| 20260903165003 | 83 | 247 | 1.0 | 3.0 | 0.00 | 0.14 | 0.04 | 85 | 1017.9 |
| 20260903164003 | 82 | 30 | 1.0 | 3.0 | 0.00 | 0.15 | 0.04 | 82 | 1018.1 |
| 20260903163005 | 83 | 133 | 1.0 | 7.0 | 0.01 | 0.15 | 0.04 | 84 | 1018.2 |
| 20260903162004 | 82 | 263 | 2.0 | 5.0 | 0.01 | 0.15 | 0.04 | 82 | 1018.1 |
| 20260903161004 | 81 | 299 | 2.0 | 5.0 | 0.01 | 0.16 | 0.04 | 85 | 1018.3 |
| 20260903160003 | 81 | 252 | 1.0 | 5.0 | 0.01 | 0.16 | 0.04 | 88 | 1018.4 |
| 20260903155003 | 80 | 18 | 1.0 | 3.0 | 0.01 | 0.16 | 0.04 | 89 | 1018.7 |
| 20260903154003 | 79 | 185 | 1.0 | 3.0 | 0.01 | 0.17 | 0.04 | 92 | 1018.7 |
| 20260903153003 | 78 | 100 | 0.0 | 2.0 | 0.00 | 0.16 | 0.03 | 92 | 1018.8 |
| 20260903152003 | 77 | 283 | 0.0 | 3.0 | 0.00 | 0.16 | 0.03 | 93 | 1018.8 |
| 20260903151003 | 77 | 3 | 0.0 | 3.0 | 0.00 | 0.16 | 0.03 | 95 | 1018.8 |
| 20260903150003 | 76 | 255 | 2.0 | 5.0 | 0.00 | 0.17 | 0.03 | 96 | 1018.9 |
| 20260903145004 | 76 | 278 | 0.0 | 3.0 | 0.00 | 0.17 | 0.03 | 98 | 1018.9 |
| 20260903144003 | 75 | 241 | 1.0 | 3.0 | 0.00 | 0.18 | 0.03 | 99 | 1018.9 |
| 20260903143004 | 75 | 232 | 0.0 | 2.0 | 0.00 | 0.18 | 0.03 | 100 | 1018.7 |
| 20260903142003 | 74 | 249 | 1.0 | 3.0 | 0.00 | 0.19 | 0.03 | 100 | 1018.7 |
| 20260903141004 | 74 | 220 | 0.0 | 2.0 | 0.00 | 0.20 | 0.03 | 100 | 1018.7 |
| 20260903140003 | 73 | 271 | 0.0 | 3.0 | 0.00 | 0.20 | 0.03 | 100 | 1018.7 |
| 20260903135003 | 73 | 265 | 0.0 | 3.0 | 0.00 | 0.21 | 0.03 | 100 | 1018.7 |
| 20260903133003 | 72 | 291 | 0.0 | 2.0 | 0.00 | 0.24 | 0.03 | 100 | 1019.0 |
| 20260903132004 | 72 | 308 | 0.0 | 3.0 | 0.01 | 0.25 | 0.03 | 100 | 1019.0 |